Regional Weather Roundup
Issued by NWS Green Bay, WI

Home | Current Version | Previous Version | Text Only | Print | Product List | Glossary On
Versions: 1 2 3 4 5 6 7 8 9 10 11 12 13 14 15 16 17 18 19 20 21 22 23 24 25 26 27 28 29 30 31 32 33 34 35 36 37 38 39 40 41 42 43 44 45 46 47 48 49 50
000
ASUS43 KGRB 202259
RWRGRB

NORTH-CENTRAL AND NORTHEAST WISCONSIN REGIONAL WEATHER ROUNDUP
NATIONAL WEATHER SERVICE GREEN BAY WI
600 PM CDT MON OCT 20 2014

WIZ005-009-010>012-018-019-210000-
NORTH CENTRAL WISCONSIN

CITY           SKY/WX    TMP DP  RH WIND       PRES   REMARKS
IRONWOOD       CLOUDY    46  43  87 N8        30.00R
MANITOWISH WTR NOT AVBL
ARBOR VITAE    NOT AVBL
EAGLE RIVER    NOT AVBL
LAND O LAKES   NOT AVBL
RHINELANDER    CLOUDY    44  42  93 N3        29.99R
PHILLIPS       NOT AVBL
ANTIGO         NOT AVBL
TOMAHAWK       NOT AVBL
MERRILL        NOT AVBL
$$

WIZ013-073-210000-
NORTHEAST WISCONSIN

CITY           SKY/WX    TMP DP  RH WIND       PRES   REMARKS
IRON MOUNTAIN  CLOUDY    46  38  73 N9        29.96R
MARINETTE      CLOUDY    48  39  71 N6        29.94R
$$

WIZ017-030-035>037-045-210000-
CENTRAL WISCONSIN

CITY           SKY/WX    TMP DP  RH WIND       PRES   REMARKS
MEDFORD        NOT AVBL
WAUSAU         CLOUDY    50  39  66 N8        29.97R
MOSINEE        NOT AVBL
MARSHFIELD     CLOUDY    51  39  63 N6        29.99R
WISC RAPIDS    CLOUDY    52  40  63 N8        30.00R
STEVENS POINT  NOT AVBL
WAUPACA        NOT AVBL
SHAWANO        NOT AVBL
CLINTONVILLE   NOT AVBL
$$

WIZ038-039-048-051-210000-
FOX VALLEY

CITY           SKY/WX    TMP DP  RH WIND       PRES   REMARKS
NWS GREEN BAY  CLOUDY    50  44  80 NW3       29.95R
APPLETON       CLOUDY    52  43  71 NW6       29.96R
OSHKOSH        CLOUDY    52  42  69 NW8       29.96R
FOND DU LAC    CLOUDY    52  42  69 NW8       29.96R
$$

WIZ022-050-052-210000-
EAST CENTRAL WISCONSIN

CITY           SKY/WX    TMP DP  RH WIND       PRES   REMARKS
STURGEON BAY   CLOUDY    48  43  81 N15       29.95R
MANITOWOC      NOT AVBL
SHEBOYGAN      CLOUDY    52  41  66 NW7       29.94R
$$

LMZ563-521-522-541>543-210000-
LAKESHORE

STATION/POSITION TIME  TEMP    WIND        PRES    VSBY  WAVE
                       AIR SEA DIR/SP/G                  HT/PER
                 (UTC) (F)     (DEG/KT/KT) (MB)    (MI)  (FT/S)
SHEBOYGAN LKSHOR 2200   53 50  350/  9/ 10 1013.5R
KEWAUNEE LKSHORE 2200   50     310/  7/ 10 1012.5R
NORTHPORT PIER   2200   49     340/ 20/ 23 1012.9R
N MID LAKE BUOY  2200   48 51  330/ 21/ 25 1012.0R         4/ 4
SISTER BAY LKSHO 2200          360/ 20/ 25   N/A
CHAMBERS ISLAND  2200   50     340/ 16/ 17 1013.5R
MENOMINEE LKSHOR 2200   50     350/ 11/ 14 1014.2R
$$



USA.gov is the U.S. government's official web portal to all federal, state and local government web resources and services.